カタログに戻る

H-1 R/B

運用中PO
NORAD 20491·ROCKET BODY·🇯🇵 Japan

打ち上げ Feb 7, 1990 から Tanegashima Space Center

Loading…

次のパス (今後24時間)

TLE

最新Source: Space-Track

元期: Sep 14, 2026, 06:13 UTC

1 20491U 90013D   26257.25920420  .00000519  00000-0  10414-2 0  9992
2 20491  99.0653 183.6307 0467031 308.8633  47.1670 13.03742806740639

AllMySatでH-1 R/Bをリアルタイム追跡

Download on the App Store